TimeCDT,TemperatureF,Dew PointF,Humidity,Sea Level PressureIn,VisibilityMPH,Wind Direction,Wind SpeedMPH,Gust SpeedMPH,PrecipitationIn,Events,Conditions,WindDirDegrees,DateUTC
12:33 AM,46.4,39.2,76,29.97,7.0,NE,5.8,-,N/A,,Mostly Cloudy,50,2013-04-09 05:33:00
12:53 AM,46.0,39.9,79,29.98,7.0,NE,5.8,-,N/A,,Mostly Cloudy,50,2013-04-09 05:53:00
1:03 AM,46.4,39.2,76,29.96,7.0,Variable,5.8,-,N/A,,Mostly Cloudy,0,2013-04-09 06:03:00
1:53 AM,45.0,39.9,82,29.96,6.0,ENE,8.1,18.4,N/A,,Haze,70,2013-04-09 06:53:00
2:51 AM,44.6,39.2,81,29.96,5.0,ENE,9.2,-,N/A,,Overcast,70,2013-04-09 07:51:00
2:53 AM,44.1,39.9,85,29.96,5.0,ENE,8.1,-,N/A,,Overcast,60,2013-04-09 07:53:00
3:53 AM,44.1,39.9,85,29.95,6.0,ENE,6.9,-,N/A,,Overcast,70,2013-04-09 08:53:00
4:44 AM,44.6,39.2,81,29.94,5.0,Variable,5.8,-,N/A,,Haze,0,2013-04-09 09:44:00
4:53 AM,43.0,39.0,86,29.96,5.0,ENE,8.1,-,N/A,,Overcast,70,2013-04-09 09:53:00
5:13 AM,42.8,39.2,87,29.96,4.0,ENE,5.8,-,0.00,Rain-Thunderstorm,Rain,60,2013-04-09 10:13:00
5:28 AM,42.8,39.2,87,29.97,3.0,ENE,3.5,-,0.05,Rain,Heavy Rain,60,2013-04-09 10:28:00
5:36 AM,42.8,39.2,87,29.95,2.5,ENE,5.8,-,0.08,Rain,Heavy Rain,60,2013-04-09 10:36:00
5:45 AM,42.8,39.2,87,29.93,2.0,NE,6.9,-,0.12,Rain-Thunderstorm,Heavy Rain,50,2013-04-09 10:45:00
5:51 AM,42.8,39.2,87,29.91,2.0,NE,6.9,-,0.14,Rain-Thunderstorm,Heavy Rain,50,2013-04-09 10:51:00
5:53 AM,42.1,39.9,92,29.91,2.0,NE,6.9,-,0.15,Rain-Thunderstorm,Heavy Rain,50,2013-04-09 10:53:00
5:59 AM,42.8,39.2,87,29.86,2.0,ENE,13.8,20.7,0.03,Rain-Thunderstorm,Heavy Thunderstorms and Rain,60,2013-04-09 10:59:00
6:08 AM,42.8,39.2,87,29.88,2.0,ENE,10.4,24.2,0.08,Rain-Thunderstorm,Heavy Thunderstorms and Rain,60,2013-04-09 11:08:00
6:11 AM,42.8,39.2,87,29.89,2.0,ENE,10.4,24.2,0.08,Rain-Thunderstorm,Heavy Thunderstorms and Rain,60,2013-04-09 11:11:00
6:20 AM,42.8,39.2,87,29.90,3.0,East,8.1,-,0.10,Rain,Rain,80,2013-04-09 11:20:00
6:53 AM,43.0,39.9,89,29.97,4.0,NNE,5.8,-,0.15,Rain,Rain,20,2013-04-09 11:53:00
7:06 AM,42.8,39.2,87,29.97,2.0,Variable,4.6,-,0.07,Rain-Thunderstorm,Heavy Rain,0,2013-04-09 12:06:00
7:20 AM,42.8,39.2,87,29.96,2.5,ESE,4.6,-,0.13,Rain-Thunderstorm,Heavy Rain,110,2013-04-09 12:20:00
7:22 AM,42.8,39.2,87,29.94,2.5,East,4.6,-,0.13,Rain,Heavy Rain,80,2013-04-09 12:22:00
7:53 AM,42.1,39.9,92,29.93,3.0,ENE,6.9,-,0.16,Rain,Light Rain,60,2013-04-09 12:53:00
8:53 AM,42.1,39.9,92,29.91,8.0,ENE,9.2,17.3,0.00,,Overcast,70,2013-04-09 13:53:00
9:53 AM,42.1,39.0,89,29.89,10.0,ENE,9.2,-,N/A,,Overcast,70,2013-04-09 14:53:00
10:53 AM,42.1,39.0,89,29.88,5.0,ENE,9.2,17.3,0.04,Rain,Light Rain,60,2013-04-09 15:53:00
11:22 AM,42.8,39.2,87,29.88,4.0,Variable,6.9,19.6,0.02,Rain-Thunderstorm,Rain,0,2013-04-09 16:22:00
11:35 AM,42.8,39.2,87,29.94,1.8,North,11.5,39.1,0.18,Rain-Thunderstorm,Heavy Thunderstorms and Rain,10,2013-04-09 16:35:00
11:47 AM,41.0,39.2,93,29.92,2.0,ENE,5.8,-,0.33,Rain-Thunderstorm,Heavy Thunderstorms and Rain,70,2013-04-09 16:47:00
11:53 AM,41.0,39.9,96,29.88,3.0,ENE,11.5,19.6,0.35,Rain-Thunderstorm,Heavy Thunderstorms and Rain,70,2013-04-09 16:53:00
12:02 PM,41.0,39.2,93,29.89,2.0,Variable,5.8,19.6,0.03,Rain,Heavy Rain,0,2013-04-09 17:02:00
12:07 PM,41.0,39.2,93,29.91,3.0,NW,12.7,18.4,0.03,Rain,Rain,320,2013-04-09 17:07:00
12:20 PM,41.0,37.4,87,29.93,10.0,North,10.4,-,0.03,Rain,Light Rain,360,2013-04-09 17:20:00
12:28 PM,41.0,37.4,87,29.92,10.0,NNE,13.8,-,0.03,,Overcast,20,2013-04-09 17:28:00
12:36 PM,42.8,37.4,81,29.91,10.0,NE,10.4,-,0.03,,Overcast,40,2013-04-09 17:36:00
12:46 PM,42.8,37.4,81,29.90,10.0,NE,10.4,-,0.03,,Overcast,40,2013-04-09 17:46:00
12:53 PM,42.1,37.9,85,29.92,10.0,ENE,10.4,17.3,0.03,,Overcast,60,2013-04-09 17:53:00
1:28 PM,41.0,37.4,87,29.88,10.0,ENE,9.2,18.4,N/A,,Overcast,60,2013-04-09 18:28:00
1:46 PM,41.0,37.4,87,29.90,10.0,ENE,8.1,16.1,0.00,Rain,Light Rain,60,2013-04-09 18:46:00
1:53 PM,41.0,37.0,86,29.91,7.0,ENE,11.5,16.1,0.00,Rain,Light Rain,70,2013-04-09 18:53:00
2:04 PM,41.0,37.4,87,29.90,2.0,NE,8.1,-,0.01,Rain,Light Rain,40,2013-04-09 19:04:00
2:33 PM,41.0,39.2,93,29.91,1.5,NE,6.9,-,0.01,Rain,Light Rain,50,2013-04-09 19:33:00
2:53 PM,41.0,39.0,93,29.94,1.8,NNE,6.9,-,0.01,Rain,Light Rain,30,2013-04-09 19:53:00
3:09 PM,41.0,39.2,93,29.93,2.0,NNE,8.1,-,0.01,Rain,Light Rain,30,2013-04-09 20:09:00
3:17 PM,41.0,39.2,93,29.93,1.8,NE,9.2,-,0.01,Rain,Light Rain,40,2013-04-09 20:17:00
3:28 PM,41.0,39.2,93,29.94,1.2,NE,9.2,-,0.01,Rain,Light Rain,50,2013-04-09 20:28:00
3:42 PM,42.8,39.2,87,29.94,2.5,ENE,6.9,-,0.02,Rain,Light Rain,60,2013-04-09 20:42:00
3:53 PM,42.1,39.0,89,29.96,3.0,NE,5.8,-,0.02,Rain,Light Rain,50,2013-04-09 20:53:00
4:46 PM,42.8,39.2,87,29.94,3.0,NE,8.1,-,0.00,Rain,Light Rain,50,2013-04-09 21:46:00
4:53 PM,42.1,39.0,89,29.97,2.5,ENE,6.9,-,0.00,Rain,Light Rain,70,2013-04-09 21:53:00
5:08 PM,42.8,39.2,87,29.95,3.0,ENE,11.5,17.3,0.00,Rain,Light Rain,60,2013-04-09 22:08:00
5:17 PM,42.8,39.2,87,29.95,4.0,ENE,10.4,17.3,0.00,,Overcast,60,2013-04-09 22:17:00
5:53 PM,42.1,39.0,89,29.99,10.0,ENE,8.1,16.1,0.00,,Overcast,60,2013-04-09 22:53:00
6:53 PM,42.1,37.9,85,29.99,10.0,NE,9.2,21.9,0.00,,Overcast,50,2013-04-09 23:53:00
7:53 PM,41.0,37.0,86,30.00,10.0,ENE,11.5,21.9,N/A,,Overcast,60,2013-04-10 00:53:00
8:53 PM,41.0,37.0,86,29.99,10.0,ENE,13.8,23.0,0.00,,Overcast,70,2013-04-10 01:53:00
9:00 PM,41.0,35.6,81,29.97,10.0,ENE,12.7,28.8,N/A,,Overcast,70,2013-04-10 02:00:00
9:53 PM,39.9,36.0,86,29.99,10.0,ENE,13.8,21.9,0.00,,Overcast,70,2013-04-10 02:53:00
10:53 PM,39.9,35.1,83,30.03,10.0,North,9.2,-,0.00,Rain,Light Rain,10,2013-04-10 03:53:00
11:03 PM,39.2,35.6,87,29.99,10.0,NE,9.2,19.6,0.00,Rain,Light Rain,50,2013-04-10 04:03:00
11:18 PM,37.4,33.8,87,29.98,6.0,ENE,10.4,21.9,0.01,Rain,Light Rain,70,2013-04-10 04:18:00
11:25 PM,37.4,33.8,87,30.04,5.0,North,8.1,18.4,0.03,Rain-Thunderstorm,Heavy Rain,10,2013-04-10 04:25:00
11:53 PM,37.0,35.1,93,30.05,2.5,NE,6.9,-,0.18,Rain-Thunderstorm,Heavy Thunderstorms and Rain,50,2013-04-10 04:53:00